| time (UTC) | temp C | wind direction | speed KPH | gust KPH | rain 1hr cm | rain 24hr cm | rain mn cm | humidity % | barometer mb |
| 20260507074532 | 11 | 80 | 8.0 | 14.5 | 0.00 | 0.03 | 0.03 | 71 | 1011.4 |
| 20260507073030 | 10 | 108 | 6.4 | 14.5 | 0.00 | 0.03 | 0.03 | 73 | 1011.4 |
| 20260507071551 | 9 | 107 | 6.4 | 14.5 | 0.00 | 0.03 | 0.03 | 73 | 1011.5 |
| 20260507070031 | 10 | 96 | 4.8 | 12.9 | 0.00 | 0.03 | 0.03 | 75 | 1011.6 |
| 20260507064529 | 8 | 91 | 3.2 | 12.9 | 0.00 | 0.03 | 0.03 | 79 | 1011.7 |
| 20260507063032 | 7 | 88 | 4.8 | 12.9 | 0.00 | 0.00 | 0.00 | 81 | 1011.6 |
| 20260507061535 | 7 | 100 | 8.0 | 16.1 | 0.00 | 0.00 | 0.00 | 82 | 1011.5 |
| 20260507060030 | 7 | 88 | 6.4 | 12.9 | 0.00 | 0.00 | 0.00 | 83 | 1011.3 |
| 20260507054531 | 7 | 0 | 0.0 | 3.2 | 0.00 | 0.00 | 0.00 | 84 | 1011.3 |
| 20260507053032 | 7 | 0 | 0.0 | 3.2 | 0.00 | 0.00 | 0.00 | 82 | 1011.5 |
| 20260507051529 | 7 | 0 | 0.0 | 3.2 | 0.00 | 0.00 | 0.00 | 81 | 1011.8 |
| 20260507050029 | 7 | 0 | 0.0 | 6.4 | 0.00 | 0.00 | 0.00 | 80 | 1011.6 |
| 20260507044530 | 7 | 0 | 1.6 | 8.0 | 0.00 | 0.00 | 0.00 | 80 | 1011.8 |
| 20260507043035 | 6 | 86 | 3.2 | 9.7 | 0.00 | 0.00 | 0.00 | 81 | 1011.6 |
| 20260507041532 | 6 | 67 | 4.8 | 11.3 | 0.00 | 0.00 | 0.00 | 81 | 1011.6 |
| 20260507040029 | 6 | 70 | 6.4 | 12.9 | 0.00 | 0.00 | 0.00 | 80 | 1011.7 |
| 20260507034530 | 7 | 99 | 8.0 | 14.5 | 0.00 | 0.00 | 0.00 | 80 | 1011.8 |
| 20260507033026 | 7 | 94 | 8.0 | 14.5 | 0.00 | 0.00 | 0.00 | 80 | 1011.9 |
| 20260507031532 | 6 | 94 | 8.0 | 16.1 | 0.00 | 0.00 | 0.00 | 80 | 1012.0 |
| 20260507030032 | 6 | 92 | 6.4 | 12.9 | 0.00 | 0.00 | 0.00 | 80 | 1011.9 |
| 20260507024534 | 6 | 107 | 8.0 | 17.7 | 0.00 | 0.00 | 0.00 | 80 | 1011.9 |
| 20260507023030 | 6 | 66 | 8.0 | 14.5 | 0.00 | 0.00 | 0.00 | 80 | 1011.8 |
| 20260507021530 | 7 | 100 | 6.4 | 16.1 | 0.00 | 0.00 | 0.00 | 80 | 1012.0 |
| 20260507020033 | 7 | 76 | 6.4 | 14.5 | 0.00 | 0.00 | 0.00 | 80 | 1012.0 |
| 20260507014532 | 7 | 84 | 6.4 | 14.5 | 0.00 | 0.00 | 0.00 | 80 | 1012.0 |
| 20260507013036 | 7 | 82 | 4.8 | 9.7 | 0.00 | 0.00 | 0.00 | 81 | 1012.2 |
| 20260507011538 | 7 | 74 | 3.2 | 9.7 | 0.00 | 0.00 | 0.00 | 81 | 1012.3 |
| 20260507010032 | 7 | 59 | 3.2 | 8.0 | 0.00 | 0.00 | 0.00 | 80 | 1012.4 |
| 20260507004531 | 7 | 82 | 4.8 | 9.7 | 0.00 | 0.00 | 0.00 | 80 | 1012.4 |
| 20260507003029 | 7 | 73 | 3.2 | 6.4 | 0.00 | 0.00 | 0.00 | 80 | 1012.4 |
| 20260507001536 | 7 | 0 | 0.0 | 3.2 | 0.00 | 0.00 | 0.00 | 81 | 1012.7 |
| 20260507000030 | 7 | 76 | 0.0 | 3.2 | 0.00 | 0.00 | 0.00 | 81 | 1012.5 |
| 20260506234541 | 7 | 63 | 0.0 | 4.8 | 0.00 | 0.00 | 0.00 | 81 | 1012.4 |
| 20260506233034 | 7 | 0 | 0.0 | 3.2 | 0.00 | 0.00 | 0.00 | 81 | 1012.5 |
| 20260506231535 | 7 | 0 | 0.0 | 4.8 | 0.00 | 0.00 | 0.00 | 80 | 1012.7 |
| 20260506230030 | 7 | 86 | 4.8 | 9.7 | 0.00 | 0.00 | 0.00 | 80 | 1012.6 |
| 20260506224532 | 7 | 73 | 6.4 | 14.5 | 0.00 | 0.00 | 0.00 | 79 | 1012.5 |
| 20260506223031 | 7 | 88 | 8.0 | 12.9 | 0.00 | 0.00 | 0.00 | 79 | 1012.5 |
| 20260506221529 | 8 | 84 | 8.0 | 11.3 | 0.00 | 0.00 | 0.00 | 78 | 1012.5 |
| 20260506220030 | 8 | 92 | 6.4 | 11.3 | 0.00 | 0.00 | 0.00 | 77 | 1012.7 |
| 20260506214529 | 8 | 97 | 6.4 | 11.3 | 0.00 | 0.00 | 0.00 | 75 | 1012.8 |
| 20260506213028 | 8 | 74 | 1.6 | 12.9 | 0.00 | 0.00 | 0.00 | 71 | 1012.8 |
| 20260506211536 | 8 | 67 | 1.6 | 8.0 | 0.00 | 0.00 | 0.00 | 66 | 1012.7 |
| 20260506210031 | 9 | 350 | 3.2 | 8.0 | 0.00 | 0.00 | 0.00 | 64 | 1012.5 |
| 20260506204534 | 10 | 0 | 0.0 | 3.2 | 0.00 | 0.00 | 0.00 | 61 | 1012.3 |
| 20260506203043 | 10 | 94 | 1.6 | 4.8 | 0.00 | 0.00 | 0.00 | 59 | 1012.2 |
| 20260506201532 | 10 | 109 | 1.6 | 3.2 | 0.00 | 0.00 | 0.00 | 58 | 1012.0 |
| 20260506200044 | 11 | 120 | 1.6 | 4.8 | 0.00 | 0.00 | 0.00 | 57 | 1011.9 |
| 20260506194531 | 11 | 129 | 1.6 | 4.8 | 0.00 | 0.00 | 0.00 | 54 | 1011.9 |
| 20260506193032 | 11 | 129 | 0.0 | 3.2 | 0.00 | 0.00 | 0.00 | 52 | 1011.8 |
| 20260506191530 | 12 | 129 | 1.6 | 6.4 | 0.00 | 0.00 | 0.00 | 51 | 1011.7 |
| 20260506190036 | 12 | 124 | 1.6 | 6.4 | 0.00 | 0.00 | 0.00 | 49 | 1011.6 |
| 20260506184531 | 13 | 135 | 1.6 | 6.4 | 0.00 | 0.00 | 0.00 | 46 | 1011.6 |
| 20260506183031 | 13 | 97 | 4.8 | 9.7 | 0.00 | 0.00 | 0.00 | 45 | 1011.6 |
| 20260506181534 | 13 | 133 | 3.2 | 14.5 | 0.00 | 0.00 | 0.00 | 43 | 1011.6 |
| 20260506180035 | 15 | 124 | 4.8 | 9.7 | 0.00 | 0.00 | 0.00 | 41 | 1011.6 |
| 20260506174531 | 15 | 118 | 4.8 | 11.3 | 0.00 | 0.08 | 0.00 | 41 | 1011.7 |
| 20260506173039 | 15 | 143 | 4.8 | 14.5 | 0.00 | 0.08 | 0.00 | 41 | 1011.8 |
| 20260506171534 | 15 | 180 | 1.6 | 12.9 | 0.00 | 0.08 | 0.00 | 42 | 1011.7 |
| 20260506170028 | 15 | 167 | 4.8 | 12.9 | 0.00 | 0.08 | 0.00 | 43 | 1011.8 |
| 20260506164530 | 16 | 144 | 6.4 | 16.1 | 0.00 | 0.18 | 0.00 | 41 | 1011.8 |
| 20260506163050 | 16 | 0 | 1.6 | 19.3 | 0.00 | 0.18 | 0.00 | 42 | 1011.8 |
| 20260506161531 | 16 | 124 | 4.8 | 17.7 | 0.00 | 0.18 | 0.00 | 42 | 1011.8 |
| 20260506160031 | 16 | 136 | 3.2 | 9.7 | 0.00 | 0.18 | 0.00 | 41 | 1011.8 |
| 20260506154537 | 15 | 238 | 3.2 | 11.3 | 0.00 | 0.28 | 0.00 | 42 | 1012.0 |
| 20260506153032 | 16 | 178 | 3.2 | 16.1 | 0.00 | 0.28 | 0.00 | 45 | 1012.2 |
| 20260506151538 | 15 | 165 | 1.6 | 9.7 | 0.00 | 0.28 | 0.00 | 46 | 1012.2 |
| 20260506150032 | 14 | 149 | 4.8 | 24.1 | 0.00 | 0.28 | 0.00 | 46 | 1012.5 |
| 20260506144529 | 15 | 137 | 4.8 | 12.9 | 0.00 | 0.28 | 0.00 | 44 | 1012.6 |
| 20260506143032 | 15 | 122 | 1.6 | 12.9 | 0.00 | 0.28 | 0.00 | 43 | 1012.6 |
| 20260506141529 | 15 | 94 | 6.4 | 17.7 | 0.00 | 0.28 | 0.00 | 44 | 1012.7 |
| 20260506140035 | 15 | 91 | 6.4 | 14.5 | 0.00 | 0.28 | 0.00 | 42 | 1012.8 |
| 20260506134532 | 15 | 127 | 3.2 | 8.0 | 0.00 | 0.28 | 0.00 | 47 | 1013.0 |
| 20260506133029 | 13 | 202 | 0.0 | 12.9 | 0.00 | 0.28 | 0.00 | 50 | 1013.1 |
| 20260506131535 | 14 | 133 | 4.8 | 11.3 | 0.00 | 0.28 | 0.00 | 51 | 1013.1 |
| 20260506130030 | 13 | 180 | 3.2 | 9.7 | 0.00 | 0.28 | 0.00 | 54 | 1013.3 |
| 20260506124532 | 12 | 0 | 1.6 | 9.7 | 0.00 | 0.28 | 0.00 | 53 | 1013.5 |
| 20260506123032 | 12 | 165 | 1.6 | 9.7 | 0.00 | 0.28 | 0.00 | 54 | 1013.7 |
| 20260506121532 | 12 | 142 | 3.2 | 6.4 | 0.00 | 0.28 | 0.00 | 55 | 1013.8 |
| 20260506120034 | 12 | 0 | 0.0 | 6.4 | 0.00 | 0.28 | 0.00 | 59 | 1013.9 |
| 20260506114531 | 13 | 95 | 1.6 | 6.4 | 0.00 | 0.28 | 0.00 | 56 | 1014.0 |
| 20260506113030 | 11 | 211 | 4.8 | 9.7 | 0.00 | 0.28 | 0.00 | 57 | 1014.1 |
| 20260506111534 | 11 | 280 | 1.6 | 12.9 | 0.00 | 0.28 | 0.00 | 57 | 1014.1 |
| 20260506110030 | 12 | 285 | 3.2 | 8.0 | 0.00 | 0.28 | 0.00 | 59 | 1014.1 |
| 20260506104529 | 12 | 0 | 0.0 | 6.4 | 0.00 | 0.28 | 0.00 | 57 | 1014.1 |
| 20260506103031 | 12 | 82 | 0.0 | 11.3 | 0.00 | 0.28 | 0.00 | 57 | 1014.2 |
| 20260506101528 | 12 | 20 | 1.6 | 8.0 | 0.00 | 0.28 | 0.00 | 57 | 1014.2 |
| 20260506100031 | 12 | 71 | 4.8 | 11.3 | 0.00 | 0.28 | 0.00 | 54 | 1014.2 |
| 20260506094532 | 12 | 94 | 3.2 | 6.4 | 0.00 | 0.28 | 0.00 | 57 | 1014.3 |
| 20260506093032 | 11 | 104 | 4.8 | 9.7 | 0.00 | 0.28 | 0.00 | 59 | 1014.2 |
| 20260506091530 | 11 | 61 | 0.0 | 6.4 | 0.00 | 0.28 | 0.00 | 63 | 1014.2 |
| 20260506090029 | 11 | 322 | 3.2 | 8.0 | 0.00 | 0.28 | 0.00 | 63 | 1014.2 |
| 20260506084537 | 10 | 317 | 3.2 | 8.0 | 0.00 | 0.28 | 0.00 | 67 | 1014.1 |
| 20260506083032 | 9 | 316 | 1.6 | 6.4 | 0.00 | 0.28 | 0.00 | 67 | 1014.1 |
| 20260506081530 | 8 | 300 | 1.6 | 6.4 | 0.00 | 0.28 | 0.00 | 71 | 1014.2 |